| time (UTC) | temp C | wind direction | speed KPH | gust KPH | rain 1hr cm | rain 24hr cm | rain mn cm | humidity % | barometer mb |
| 20260504201923 | 25 | 349 | 3.2 | 12.9 | 0.00 | 0.00 | 0.00 | 43 | 1012.5 |
| 20260504201419 | 25 | 349 | 1.6 | 9.7 | 0.00 | 0.00 | 0.00 | 41 | 1012.5 |
| 20260504201150 | 24 | 349 | 3.2 | 11.3 | 0.00 | 0.00 | 0.00 | 43 | 1012.6 |
| 20260504200416 | 25 | 349 | 1.6 | 11.3 | 0.00 | 0.00 | 0.00 | 41 | 1012.7 |
| 20260504195417 | 25 | 349 | 3.2 | 14.5 | 0.00 | 0.00 | 0.00 | 41 | 1012.7 |
| 20260504194916 | 26 | 349 | 3.2 | 19.3 | 0.00 | 0.00 | 0.00 | 40 | 1012.7 |
| 20260504194415 | 26 | 349 | 1.6 | 19.3 | 0.00 | 0.00 | 0.00 | 39 | 1012.8 |
| 20260504193915 | 26 | 349 | 1.6 | 6.4 | 0.00 | 0.00 | 0.00 | 40 | 1012.8 |
| 20260504193412 | 26 | 349 | 3.2 | 8.0 | 0.00 | 0.00 | 0.00 | 37 | 1012.8 |
| 20260504192913 | 27 | 349 | 3.2 | 12.9 | 0.00 | 0.00 | 0.00 | 39 | 1012.9 |
| 20260504192641 | 26 | 349 | 3.2 | 12.9 | 0.00 | 0.00 | 0.00 | 39 | 1013.0 |
| 20260504191909 | 26 | 349 | 3.2 | 11.3 | 0.00 | 0.00 | 0.00 | 38 | 1012.9 |
| 20260504191408 | 27 | 349 | 1.6 | 8.0 | 0.00 | 0.00 | 0.00 | 38 | 1012.9 |
| 20260504190902 | 27 | 349 | 1.6 | 9.7 | 0.00 | 0.00 | 0.00 | 40 | 1013.0 |
| 20260504190627 | 26 | 349 | 3.2 | 9.7 | 0.00 | 0.00 | 0.00 | 39 | 1013.1 |
| 20260504190121 | 26 | 349 | 3.2 | 12.9 | 0.00 | 0.00 | 0.00 | 40 | 1013.2 |
| 20260504185344 | 26 | 349 | 1.6 | 12.9 | 0.00 | 0.00 | 0.00 | 42 | 1013.3 |
| 20260504184838 | 26 | 349 | 3.2 | 12.9 | 0.00 | 0.00 | 0.00 | 41 | 1013.4 |
| 20260504184602 | 26 | 349 | 3.2 | 12.9 | 0.00 | 0.00 | 0.00 | 39 | 1013.6 |
| 20260504183826 | 26 | 350 | 1.6 | 12.9 | 0.00 | 0.00 | 0.00 | 41 | 1013.6 |
| 20260504183320 | 26 | 350 | 3.2 | 11.3 | 0.00 | 0.00 | 0.00 | 40 | 1013.7 |
| 20260504183046 | 26 | 350 | 3.2 | 11.3 | 0.00 | 0.00 | 0.00 | 43 | 1013.7 |
| 20260504181802 | 25 | 350 | 3.2 | 14.5 | 0.00 | 0.00 | 0.00 | 44 | 1013.9 |
| 20260504181256 | 25 | 349 | 1.6 | 14.5 | 0.00 | 0.00 | 0.00 | 40 | 1013.9 |
| 20260504180750 | 25 | 349 | 1.6 | 8.0 | 0.00 | 0.00 | 0.00 | 39 | 1013.9 |
| 20260504180244 | 26 | 350 | 1.6 | 6.4 | 0.00 | 0.00 | 0.00 | 40 | 1014.1 |
| 20260504175738 | 26 | 350 | 1.6 | 9.7 | 0.00 | 0.00 | 0.00 | 41 | 1014.1 |
| 20260504175232 | 25 | 350 | 3.2 | 9.7 | 0.00 | 0.00 | 0.00 | 42 | 1014.1 |
| 20260504174726 | 25 | 349 | 3.2 | 9.7 | 0.00 | 0.00 | 0.00 | 38 | 1014.2 |
| 20260504174221 | 25 | 350 | 1.6 | 8.0 | 0.00 | 0.00 | 0.00 | 40 | 1014.3 |
| 20260504173714 | 25 | 350 | 1.6 | 8.0 | 0.00 | 0.00 | 0.00 | 42 | 1014.4 |
| 20260504173208 | 25 | 350 | 1.6 | 8.0 | 0.00 | 0.00 | 0.00 | 41 | 1014.5 |
| 20260504172702 | 24 | 350 | 1.6 | 6.4 | 0.00 | 0.00 | 0.00 | 42 | 1014.4 |
| 20260504172156 | 24 | 350 | 1.6 | 6.4 | 0.00 | 0.00 | 0.00 | 44 | 1014.5 |
| 20260504171651 | 24 | 349 | 1.6 | 6.4 | 0.00 | 0.00 | 0.00 | 43 | 1014.5 |
| 20260504171415 | 24 | 350 | 1.6 | 6.4 | 0.00 | 0.00 | 0.00 | 45 | 1014.7 |
| 20260504150921 | 22 | 349 | 1.6 | 8.0 | 0.00 | 0.00 | 0.00 | 49 | 1015.7 |
| 20260504150414 | 23 | 349 | 1.6 | 8.0 | 0.00 | 0.00 | 0.00 | 45 | 1015.8 |
| 20260504141314 | 20 | 350 | 0.0 | 6.4 | 0.00 | 0.00 | 0.00 | 49 | 1016.2 |
| 20260504140808 | 20 | 350 | 0.0 | 4.8 | 0.00 | 0.00 | 0.00 | 53 | 1016.1 |
| 20260504140306 | 19 | 350 | 1.6 | 8.0 | 0.00 | 0.00 | 0.00 | 53 | 1016.1 |
| 20260504130758 | 16 | 350 | 0.0 | 4.8 | 0.00 | 0.00 | 0.00 | 62 | 1016.6 |
| 20260504130254 | 16 | 350 | 1.6 | 4.8 | 0.00 | 0.00 | 0.00 | 58 | 1016.6 |
| 20260504120250 | 12 | 350 | 0.0 | 6.4 | 0.00 | 0.00 | 0.00 | 67 | 1016.8 |
| 20260504110453 | 6 | 349 | 0.0 | 0.0 | 0.00 | 0.00 | 0.00 | 78 | 1016.7 |
| 20260504100613 | 6 | 349 | 0.0 | 0.0 | 0.00 | 0.00 | 0.00 | 76 | 1016.3 |
| 20260504100107 | 7 | 349 | 0.0 | 0.0 | 0.00 | 0.00 | 0.00 | 75 | 1016.3 |
| 20260504081907 | 10 | 349 | 0.0 | 6.4 | 0.00 | 0.00 | 0.00 | 65 | 1016.7 |
| 20260504081401 | 10 | 349 | 1.6 | 8.0 | 0.00 | 0.00 | 0.00 | 66 | 1016.8 |
| 20260504080855 | 10 | 349 | 1.6 | 8.0 | 0.00 | 0.00 | 0.00 | 65 | 1016.6 |
| 20260504080349 | 10 | 349 | 1.6 | 9.7 | 0.00 | 0.00 | 0.00 | 65 | 1016.6 |
| 20260504070237 | 8 | 349 | 0.0 | 1.6 | 0.00 | 0.00 | 0.00 | 70 | 1016.8 |
| 20260504060215 | 9 | 349 | 0.0 | 1.6 | 0.00 | 0.00 | 0.00 | 66 | 1016.9 |
| 20260504050707 | 8 | 349 | 0.0 | 1.6 | 0.00 | 0.00 | 0.00 | 66 | 1016.7 |
| 20260504050438 | 8 | 349 | 0.0 | 1.6 | 0.00 | 0.00 | 0.00 | 66 | 1016.7 |
| 20260504045707 | 8 | 349 | 0.0 | 1.6 | 0.00 | 0.00 | 0.00 | 66 | 1016.8 |
| 20260504045207 | 8 | 349 | 0.0 | 4.8 | 0.00 | 0.00 | 0.00 | 67 | 1016.6 |
| 20260504044707 | 8 | 349 | 0.0 | 4.8 | 0.00 | 0.00 | 0.00 | 67 | 1016.4 |
| 20260504044435 | 8 | 349 | 0.0 | 4.8 | 0.00 | 0.00 | 0.00 | 67 | 1016.4 |
| 20260504043935 | 8 | 349 | 0.0 | 4.8 | 0.00 | 0.00 | 0.00 | 67 | 1016.8 |
| 20260504043202 | 8 | 349 | 0.0 | 1.6 | 0.00 | 0.00 | 0.00 | 67 | 1016.7 |
| 20260504042703 | 8 | 349 | 0.0 | 1.6 | 0.00 | 0.00 | 0.00 | 67 | 1016.6 |
| 20260504041703 | 8 | 349 | 0.0 | 3.2 | 0.00 | 0.00 | 0.00 | 67 | 1016.6 |
| 20260504041200 | 8 | 349 | 0.0 | 3.2 | 0.00 | 0.00 | 0.00 | 66 | 1016.6 |
| 20260504040932 | 8 | 349 | 0.0 | 1.6 | 0.00 | 0.00 | 0.00 | 67 | 1016.8 |
| 20260504040200 | 8 | 349 | 0.0 | 1.6 | 0.00 | 0.00 | 0.00 | 66 | 1016.7 |
| 20260504035655 | 8 | 349 | 0.0 | 1.6 | 0.00 | 0.00 | 0.00 | 66 | 1016.8 |
| 20260504035422 | 8 | 349 | 0.0 | 4.8 | 0.00 | 0.00 | 0.00 | 67 | 1016.7 |
| 20260504034644 | 8 | 349 | 0.0 | 4.8 | 0.00 | 0.00 | 0.00 | 67 | 1016.6 |
| 20260504034137 | 8 | 349 | 0.0 | 1.6 | 0.00 | 0.00 | 0.00 | 67 | 1016.4 |
| 20260504033631 | 8 | 349 | 0.0 | 1.6 | 0.00 | 0.00 | 0.00 | 67 | 1016.4 |
| 20260504033125 | 8 | 349 | 0.0 | 3.2 | 0.00 | 0.00 | 0.00 | 68 | 1016.3 |
| 20260504032113 | 8 | 349 | 0.0 | 1.6 | 0.00 | 0.00 | 0.00 | 69 | 1016.3 |
| 20260504031607 | 7 | 349 | 0.0 | 1.6 | 0.00 | 0.00 | 0.00 | 69 | 1016.4 |
| 20260504031101 | 7 | 349 | 0.0 | 1.6 | 0.00 | 0.00 | 0.00 | 69 | 1016.4 |
| 20260504030555 | 7 | 349 | 0.0 | 1.6 | 0.00 | 0.00 | 0.00 | 70 | 1016.6 |
| 20260504030049 | 7 | 349 | 0.0 | 1.6 | 0.00 | 0.00 | 0.00 | 70 | 1016.4 |
| 20260504025543 | 7 | 349 | 0.0 | 1.6 | 0.00 | 0.00 | 0.00 | 70 | 1016.4 |
| 20260504025308 | 7 | 349 | 0.0 | 1.6 | 0.00 | 0.00 | 0.00 | 69 | 1016.4 |
| 20260504024804 | 7 | 349 | 0.0 | 1.6 | 0.00 | 0.00 | 0.00 | 70 | 1016.4 |
| 20260504024025 | 8 | 349 | 0.0 | 1.6 | 0.00 | 0.00 | 0.00 | 70 | 1016.4 |
| 20260504023519 | 8 | 349 | 0.0 | 1.6 | 0.00 | 0.00 | 0.00 | 70 | 1016.4 |
| 20260504023244 | 8 | 349 | 0.0 | 1.6 | 0.00 | 0.00 | 0.00 | 70 | 1016.3 |
| 20260504022507 | 8 | 349 | 0.0 | 1.6 | 0.00 | 0.00 | 0.00 | 70 | 1016.4 |
| 20260504022001 | 8 | 349 | 0.0 | 1.6 | 0.00 | 0.00 | 0.00 | 70 | 1016.3 |
| 20260504021455 | 8 | 349 | 0.0 | 1.6 | 0.00 | 0.00 | 0.00 | 70 | 1016.3 |
| 20260504020953 | 8 | 349 | 0.0 | 1.6 | 0.00 | 0.00 | 0.00 | 70 | 1016.4 |
| 20260504015933 | 8 | 349 | 0.0 | 1.6 | 0.00 | 0.00 | 0.00 | 69 | 1016.2 |
| 20260504015427 | 8 | 350 | 0.0 | 1.6 | 0.00 | 0.00 | 0.00 | 69 | 1016.2 |
| 20260504014921 | 8 | 349 | 0.0 | 1.6 | 0.00 | 0.00 | 0.00 | 69 | 1016.2 |
| 20260504014646 | 8 | 349 | 0.0 | 1.6 | 0.00 | 0.00 | 0.00 | 69 | 1016.1 |
| 20260504013909 | 8 | 349 | 0.0 | 1.6 | 0.00 | 0.00 | 0.00 | 69 | 1016.0 |
| 20260504013403 | 8 | 349 | 0.0 | 1.6 | 0.00 | 0.00 | 0.00 | 68 | 1015.9 |
| 20260504012857 | 8 | 349 | 0.0 | 1.6 | 0.00 | 0.00 | 0.00 | 70 | 1016.0 |
| 20260504012351 | 8 | 349 | 0.0 | 1.6 | 0.00 | 0.00 | 0.00 | 69 | 1015.9 |
| 20260504011845 | 8 | 349 | 0.0 | 1.6 | 0.00 | 0.00 | 0.00 | 68 | 1016.0 |
| 20260504011339 | 8 | 349 | 0.0 | 0.0 | 0.00 | 0.00 | 0.00 | 67 | 1015.8 |
| 20260504010833 | 8 | 349 | 0.0 | 1.6 | 0.00 | 0.00 | 0.00 | 67 | 1015.8 |
| 20260504010557 | 9 | 349 | 0.0 | 1.6 | 0.00 | 0.00 | 0.00 | 67 | 1015.8 |
| 20260504005821 | 9 | 349 | 0.0 | 1.6 | 0.00 | 0.00 | 0.00 | 67 | 1015.8 |
| 20260504005315 | 9 | 349 | 0.0 | 1.6 | 0.00 | 0.00 | 0.00 | 66 | 1015.8 |
| 20260504004815 | 9 | 349 | 0.0 | 1.6 | 0.00 | 0.00 | 0.00 | 65 | 1015.8 |
| 20260504004313 | 10 | 349 | 0.0 | 1.6 | 0.00 | 0.00 | 0.00 | 64 | 1015.9 |
| 20260504003811 | 10 | 349 | 0.0 | 1.6 | 0.00 | 0.00 | 0.00 | 64 | 1015.9 |
| 20260504003541 | 10 | 349 | 0.0 | 1.6 | 0.00 | 0.00 | 0.00 | 63 | 1015.9 |
| 20260504002807 | 10 | 349 | 0.0 | 1.6 | 0.00 | 0.00 | 0.00 | 63 | 1015.9 |
| 20260504002305 | 10 | 349 | 0.0 | 1.6 | 0.00 | 0.00 | 0.00 | 62 | 1015.9 |
| 20260504002036 | 11 | 349 | 0.0 | 1.6 | 0.00 | 0.00 | 0.00 | 61 | 1015.9 |
| 20260504001536 | 11 | 349 | 0.0 | 1.6 | 0.00 | 0.00 | 0.00 | 60 | 1015.8 |
| 20260504000803 | 11 | 349 | 0.0 | 1.6 | 0.00 | 0.00 | 0.00 | 59 | 1015.9 |
| 20260503235531 | 12 | 349 | 0.0 | 0.0 | 0.00 | 0.00 | 0.00 | 57 | 1015.8 |
| 20260503234759 | 12 | 349 | 0.0 | 0.0 | 0.00 | 0.00 | 0.00 | 55 | 1015.7 |
| 20260503234259 | 12 | 349 | 0.0 | 1.6 | 0.00 | 0.00 | 0.00 | 54 | 1015.7 |
| 20260503233759 | 13 | 349 | 0.0 | 1.6 | 0.00 | 0.00 | 0.00 | 52 | 1015.6 |
| 20260503233548 | 13 | 349 | 0.0 | 1.6 | 0.00 | 0.00 | 0.00 | 52 | 1015.6 |
| 20260503232753 | 13 | 349 | 0.0 | 1.6 | 0.00 | 0.00 | 0.00 | 51 | 1015.7 |
| 20260503232251 | 13 | 349 | 0.0 | 1.6 | 0.00 | 0.00 | 0.00 | 52 | 1015.6 |
| 20260503231749 | 14 | 349 | 0.0 | 1.6 | 0.00 | 0.00 | 0.00 | 50 | 1015.5 |
| 20260503231248 | 14 | 349 | 0.0 | 1.6 | 0.00 | 0.00 | 0.00 | 49 | 1015.5 |
| 20260503230749 | 15 | 349 | 0.0 | 3.2 | 0.00 | 0.00 | 0.00 | 48 | 1015.6 |
| 20260503230249 | 15 | 349 | 0.0 | 3.2 | 0.00 | 0.00 | 0.00 | 46 | 1015.5 |
| 20260503225749 | 15 | 349 | 0.0 | 1.6 | 0.00 | 0.00 | 0.00 | 45 | 1015.5 |
| 20260503225248 | 15 | 349 | 0.0 | 1.6 | 0.00 | 0.00 | 0.00 | 44 | 1015.5 |
| 20260503224750 | 16 | 349 | 0.0 | 1.6 | 0.00 | 0.00 | 0.00 | 43 | 1015.6 |
| 20260503224249 | 16 | 349 | 0.0 | 1.6 | 0.00 | 0.00 | 0.00 | 42 | 1015.7 |
| 20260503223748 | 16 | 349 | 0.0 | 8.0 | 0.00 | 0.00 | 0.00 | 40 | 1015.7 |
| 20260503223249 | 17 | 349 | 0.0 | 8.0 | 0.00 | 0.00 | 0.00 | 39 | 1015.7 |
| 20260503222749 | 17 | 349 | 0.0 | 4.8 | 0.00 | 0.00 | 0.00 | 40 | 1015.7 |
| 20260503222249 | 18 | 349 | 0.0 | 4.8 | 0.00 | 0.00 | 0.00 | 36 | 1015.6 |
| 20260503222020 | 18 | 349 | 0.0 | 3.2 | 0.00 | 0.00 | 0.00 | 39 | 1015.7 |
| 20260503221248 | 18 | 349 | 0.0 | 6.4 | 0.00 | 0.00 | 0.00 | 37 | 1015.7 |
| 20260503220749 | 19 | 349 | 0.0 | 6.4 | 0.00 | 0.00 | 0.00 | 36 | 1015.8 |
| 20260503220249 | 19 | 349 | 0.0 | 1.6 | 0.00 | 0.00 | 0.00 | 37 | 1015.9 |
| 20260503215749 | 19 | 349 | 0.0 | 3.2 | 0.00 | 0.00 | 0.00 | 37 | 1015.8 |
| 20260503215249 | 19 | 349 | 0.0 | 3.2 | 0.00 | 0.00 | 0.00 | 34 | 1015.8 |
| 20260503214748 | 20 | 349 | 0.0 | 3.2 | 0.00 | 0.00 | 0.00 | 33 | 1015.9 |
| 20260503214247 | 20 | 349 | 0.0 | 6.4 | 0.00 | 0.00 | 0.00 | 37 | 1015.8 |
| 20260503213743 | 20 | 349 | 0.0 | 6.4 | 0.00 | 0.00 | 0.00 | 37 | 1016.0 |
| 20260503213242 | 20 | 349 | 1.6 | 6.4 | 0.00 | 0.00 | 0.00 | 35 | 1015.9 |
| 20260503212741 | 20 | 349 | 0.0 | 4.8 | 0.00 | 0.00 | 0.00 | 39 | 1015.9 |
| 20260503212241 | 20 | 349 | 0.0 | 4.8 | 0.00 | 0.00 | 0.00 | 34 | 1016.0 |
| 20260503212012 | 20 | 349 | 1.6 | 6.4 | 0.00 | 0.00 | 0.00 | 37 | 1016.0 |
| 20260503211241 | 20 | 349 | 1.6 | 6.4 | 0.00 | 0.00 | 0.00 | 35 | 1015.8 |
| 20260503210741 | 20 | 349 | 0.0 | 3.2 | 0.00 | 0.00 | 0.00 | 34 | 1015.9 |
| 20260503210241 | 20 | 349 | 0.0 | 4.8 | 0.00 | 0.00 | 0.00 | 36 | 1015.8 |
| 20260503210011 | 19 | 349 | 1.6 | 6.4 | 0.00 | 0.00 | 0.00 | 38 | 1015.9 |
| 20260503205241 | 18 | 349 | 1.6 | 9.7 | 0.00 | 0.00 | 0.00 | 37 | 1015.9 |
| 20260503204740 | 18 | 349 | 1.6 | 9.7 | 0.00 | 0.00 | 0.00 | 38 | 1015.9 |
| 20260503204240 | 18 | 349 | 1.6 | 6.4 | 0.00 | 0.00 | 0.00 | 36 | 1016.0 |
| 20260503203733 | 18 | 349 | 1.6 | 6.4 | 0.00 | 0.00 | 0.00 | 39 | 1016.1 |
| 20260503203226 | 18 | 349 | 1.6 | 8.0 | 0.00 | 0.00 | 0.00 | 37 | 1016.2 |
| 20260503202720 | 18 | 349 | 1.6 | 8.0 | 0.00 | 0.00 | 0.00 | 38 | 1016.1 |
| 20260503202214 | 19 | 349 | 1.6 | 8.0 | 0.00 | 0.00 | 0.00 | 35 | 1016.2 |